Regional Weather Roundup
Issued by NWS

Home | Current Version | Previous Version | Graphics & Text | Print | Product List | Glossary On
Versions: 1 2 3 4 5 6 7 8 9 10 11 12 13 14 15 16 17 18 19 20 21 22 23 24 25 26 27 28 29 30 31 32 33 34 35 36 37 38 39 40 41 42 43 44 45 46 47 48 49 50
853
ASUS43 KIND 282309
RWRIN

WEATHER ROUNDUP FOR INDIANA
NATIONAL WEATHER SERVICE INDIANAPOLIS IN
700 PM EDT SUN AUG 28 2016

NOTE: "FAIR" INDICATES FEW OR NO CLOUDS BELOW 12,000 FEET WITH NO
SIGNIFICANT WEATHER AND/OR OBSTRUCTIONS TO VISIBILITY.

* - STATION DOES NOT REPORT WEATHER SUCH AS PRECIPITATION OR FOG.

+ - STATION NOT QUALITY CONTROLLED BY THE NATIONAL WEATHER SERVICE.
    USE DATA WITH CAUTION...ESPECIALLY DEWPOINT AND RELATIVE
    HUMIDITY OBSERVATIONS.

INZ001>003-010>013-019-020-290000-
NORTHWEST INDIANA

CITY           SKY/WX    TMP DP  RH WIND       PRES   REMARKS
GARY /AIRPORT/ PTSUNNY   77  73  88 NE8       30.18R
KNOX *+        PTSUNNY   73  52  46 CALM      30.17R
LA PORTE +     CLOUDY   N/A N/A N/A CALM      30.18S
MICHIGAN CITY+ CLOUDY    75  70  83 CALM      30.18S
MONTICELLO +   PTSUNNY   77  65  67 NE3       30.15F
RENSSELAER +   CLOUDY    77  72  83 CALM      30.16S
VALPARAISO     CLOUDY    74  71  91 CALM      30.18S

$$

LMZ046-743>745-290000-
SOUTHERN LAKE MICHIGAN

STATION/POSITION TIME  TEMP    WIND        PRES    WAVE
                       AIR SEA DIR/SP/G            HT
                 (UTC) (F)     (DEG/KT/KT) (MB)    (FT)
BURNS HARBOR     2200   75      70/  9/ 13 1021.7F
MICHIGAN CITY    2200   74      30/ 10/ 11   N/A
5NW MICH CITY    2300   75 77   50/ 10/ 10   N/A     1

$$

INZ004-005-014>016-021>024-290000-
NORTH CENTRAL INDIANA

CITY           SKY/WX    TMP DP  RH WIND       PRES   REMARKS
GOSHEN         CLOUDY    75  70  84 E3        30.18S
LOGANSPORT +   CLOUDY    72  68  88 NE6       30.17S
PERU/GRISSOM   PTSUNNY   72  67  84 E8        30.15S
ROCHESTER +    CLOUDY    79  72  78 CALM      30.18S
SOUTH BEND     CLOUDY    78  72  81 CALM      30.18S
WARSAW +       CLOUDY    73  72  94 E5        30.19R

$$

INZ006>009-017-018-025>027-290000-
NORTHEAST INDIANA

CITY           SKY/WX    TMP DP  RH WIND       PRES   REMARKS
ANGOLA *+      SUNNY     75  68  78 W3        30.18R
AUBURN +       CLOUDY    72  68  88 SE3       30.18R
FORT WAYNE     CLOUDY    77  66  68 E8        30.18R
HUNTINGTON +   MOSUNNY   74  68  81 CALM      30.18R

$$

INZ028-029-035-036-043>045-051>053-290000-
WEST CENTRAL INDIANA

CITY           SKY/WX    TMP DP  RH WIND       PRES   REMARKS
CRAWFORDSVL +  SUNNY     85  71  63 N3        30.14S
GREENCASTLE +  SUNNY     86  77  74 N3        30.14S HX  97
LAFAYETTE      TSTM      74  71  91 N9        30.14F FOG
TERRE HAUTE    PTSUNNY   87  75  67 N5        30.12S HX  96

$$

INZ030>032-037>040-046>048-054>057-064-065-290000-
CENTRAL INDIANA

CITY           SKY/WX    TMP DP  RH WIND       PRES   REMARKS
COLUMBUS       MOSUNNY   86  75  70 NE5       30.12F HX  95
INDIANAPOLIS   CLOUDY    83  68  60 NE8       30.14S
-EAGLE CREEK   TSTM      78  73  84 NE6       30.15R
KOKOMO *+      CLOUDY    73  66  78 NE18G24   30.16F
MARION +       CLOUDY    79  68  69 N16G26    30.20R
MT COMFORT *+  CLOUDY    79  75  89 NW5       30.16S
SHELBYVILLE    MOSUNNY   86  75  69 N7        30.13F HX  95
ZIONSVILLE +   CLOUDY    81  72  73 CALM      30.17R

$$

INZ033-034-041-042-049-050-058-059-290000-
EAST CENTRAL INDIANA

CITY           SKY/WX    TMP DP  RH WIND       PRES   REMARKS
MUNCIE         CLOUDY    85  74  69 NE8       30.16S

$$

INZ060-061-067>069-081>083-085>088-290000-
SOUTHWEST INDIANA

CITY           SKY/WX    TMP DP  RH WIND       PRES   REMARKS
EVANSVILLE     MOSUNNY   91  73  55 E5        30.09S HX  99
HUNTINGBURG *+ MOSUNNY   90  73  58 NE5       30.10S HX  98
WASHINGTON +   SUNNY     89  76  65 MISG      30.10S HX  99

$$

INZ062-063-066-070>080-084-089>092-290000-
SOUTH CENTRAL AND SOUTHEAST INDIANA

CITY           SKY/WX    TMP DP  RH WIND       PRES   REMARKS
BLOOMINGTON    MOSUNNY   89  72  56 NE6       30.13S HX  96
MADISON *+     PTSUNNY   77  64  65 NE13G18   30.16F

$$





USA.gov is the U.S. government's official web portal to all federal, state and local government web resources and services.